Regional Weather Roundup
Issued by NWS

Home | Current Version | Previous Version | Text Only | Print | Product List | Glossary Off
Versions: 1 2 3 4 5 6 7 8 9 10 11 12 13 14 15 16 17 18 19 20 21 22 23 24 25 26 27 28 29 30 31 32 33 34 35 36 37 38 39 40 41 42 43 44 45 46 47 48 49 50

000
ASUS43 KMPX 290310
RWRMN
WEATHER ROUNDUP FOR MINNESOTA
NATIONAL WEATHER SERVICE TWIN CITIES/CHANHASSEN MN
1000 PM CDT FRI JUL 28 2017


NOTE: "FAIR" INDICATES FEW OR NO CLOUDS BELOW 12,000 FEET WITH NO
SIGNIFICANT WEATHER AND/OR OBSTRUCTIONS TO VISIBILITY. N/A MEANS
CURRENT SKY AND/OR WEATHER CONDITIONS ARE NOT AVAILABLE.

MNZ060>063-068>070-290400-
   Twin Cities Metro

CITY           SKY/WX    TMP DP  RH WIND       PRES   REMARKS
TWIN CITIES    CLEAR     74  57  55 SE7       30.08R
ST PAUL        CLEAR     72  62  71 SE3       30.08R
CRYSTAL        CLEAR     74  54  49 CALM      30.06R
BLAINE         CLEAR     72  59  64 SE5       30.08R
LAKEVILLE      CLEAR     63  63 100 CALM      30.08S
EDEN PRAIRIE   CLEAR     74  58  57 SE6       30.07R
SOUTH ST PAUL  CLEAR     73  57  56 CALM      30.07S
LAKE ELMO      FAIR      66  63  88 CALM      30.09R
$$
MNZ001>005-007-008-013>017-022>024-027-028-290400-
   Northwest Minnesota

CITY           SKY/WX    TMP DP  RH WIND       PRES   REMARKS
BEMIDJI        CLEAR     73  60  65 S6        30.06R
HALLOCK        CLEAR     66  64  94 SE8       29.99S
ROSEAU         CLEAR     70  64  83 CALM      30.03R
WARROAD        CLEAR     72  66  83 CALM      30.03S
CROOKSTON      CLEAR     70  64  83 S7        30.02S
FOSSTON        CLEAR     64  59  82 CALM      30.06S
DETROIT LAKES  CLEAR     72  61  68 CALM      30.08R
MOORHEAD       CLEAR     73  64  73 SE3       30.04R
PARK RAPIDS    CLEAR     74  62  66 SE6       30.08R
MAHNOMEN       FAIR      71  62  72 SE3       30.05S
$$
MNZ006-009>011-018-025>026-290400-
   North Central Minnesota

CITY           SKY/WX    TMP DP  RH WIND       PRES   REMARKS
BAUDETTE       CLEAR     70  61  73 CALM      30.03S
FLAG ISLAND    CLEAR     75  66  73 CALM      30.01S
INTL FALLS     CLEAR     64  59  83 CALM      30.05R
WASKISH        CLEAR     64  63  94 CALM      30.06R
BIG FORK       MOCLDY    66  64  94 CALM      30.08R
LONGVILLE      CLEAR     63  61  94 CALM      30.08S
GRAND RAPIDS   CLEAR     64  62  93 S3        30.10S
CRANE LAKE     CLEAR     61  59  94 CALM      30.08S
ORR            CLEAR     64  57  77 CALM      30.06R
COOK             N/A     64  63  94 CALM      30.09R
WALKER         FAIR      72  60  67 S3        30.07S
$$
MNZ012-019>021-037-290400-
   Northeast Minnesota

CITY           SKY/WX    TMP DP  RH WIND       PRES   REMARKS
DULUTH         CLEAR     63  58  83 CALM      30.10S
ELY            CLEAR     66  55  68 CALM      30.09S
HIBBING        CLEAR     62  60  93 CALM      30.09R
EVELETH        CLEAR     64  57  78 CALM      30.11S
DULUTH HARBOR  CLEAR     70  64  83 NE7       30.09S
TWO HARBORS    CLEAR     64  61  88 CALM      30.08S
SILVER BAY     CLEAR     63  59  88 CALM      30.09S
GRAND MARAIS     N/A     61  57  87 CALM      30.09R
G MARAIS ARPRT CLEAR     59  52  77 CALM      30.14S
$$
MNZ029>031-032-039>041-046>048-054>057-064-290400-
   West Central Minnesota

CITY           SKY/WX    TMP DP  RH WIND       PRES   REMARKS
FERGUS FALLS   CLEAR     73  64  73 SE3       30.04R
WHEATON        CLEAR     68  63  83 SE7       30.06S
MORRIS         CLEAR     72  64  78 SE6       30.06R
ALEXANDRIA     CLEAR     71  63  75 SE3       30.10R
ELBOW LAKE     FAIR      70  65  85 E5        30.06S
WADENA         CLEAR     66  63  88 CALM      30.08R
GLENWOOD       CLEAR     70  64  83 CALM      30.09S HAZE
APPLETON       CLEAR     73  63  68 SE5       30.05S
BENSON         CLEAR     70  61  73 S5        30.08S
ORTONVILLE     CLEAR     72  64  78 CALM        N/A
MADISON        CLEAR     72  64  78 SE6       30.06R
WILLMAR        FAIR      72  66  83 CALM      30.08S
$$
MNZ033>034-036-042>043-049>051-058-059-290400-
   Central Minnesota

CITY           SKY/WX    TMP DP  RH WIND       PRES   REMARKS
ST CLOUD       CLEAR     65  63  93 E3        30.08R
SAUK CENTRE    FAIR      71  61  72 E5        30.09R
PAYNESVILLE    CLEAR     67  62  85 CALM      30.09R
AITKIN         CLEAR     61  61 100 CALM      30.08R FOG
PINE RIVER     CLEAR     64  61  88 CALM      30.11S
BRAINERD       CLEAR     66  62  87 CALM      30.09R
STAPLES        CLEAR     66  59  77 CALM      30.09R
LONG PRAIRIE   FAIR      68  61  77 CALM      30.09R
LITTLE FALLS   CLEAR     64  61  88 CALM      30.09R
LITCHFIELD     CLEAR     72  64  78 CALM      30.08S
BUFFALO        CLEAR     70  58  65 CALM      30.09R
MAPLE LAKE     CLEAR     68  62  80 CALM      30.09R
HUTCHINSON     CLEAR     71  65  84 CALM      30.09R
$$
MNZ037-044-045-052-053-290400-
   East Central Minnesota

CITY           SKY/WX    TMP DP  RH WIND       PRES   REMARKS
PRINCETON      CLEAR     70  61  73 CALM      30.09R
MORA           CLEAR     64  61  88 CALM      30.10S
CAMBRIDGE      CLEAR     70  57  64 CALM      30.07R
RUSH CITY      CLEAR     64  61  90 CALM      30.09R
MOOSE LAKE     PTCLDY    64  63  94 CALM      30.08R
HINCKLEY       FAIR      64  63  94 CALM      30.09R
CLOQUET        CLEAR     66  57  72 CALM      30.10S
MCGREGOR       CLEAR     64  63  94 CALM      30.09S
$$
MNZ071>073-080-081-089-090-097-098-290400-
   Southwest Minnesota

CITY           SKY/WX    TMP DP  RH WIND       PRES   REMARKS
MONTEVIDEO     CLEAR     70  61  73 S3        30.07R
GRANITE FALLS  CLEAR     72  65  78 E3        30.08R
CANBY          CLEAR     72  64  76 CALM      30.07S
MARSHALL       CLEAR     71  64  78 S3        30.07S
REDWOOD FALLS  CLEAR     70  62  76 SE3       30.06S
OLIVIA         CLEAR     72  63  73 SE3       30.06S
PIPESTONE      CLEAR     70  63  78 SE3       30.09R
WINDOM         CLEAR     68  63  83 E3        30.09R
WORTHINGTON    CLOUDY    68  62  81 E5        30.09R
JACKSON        CLOUDY    66  61  82 CALM      30.10R
TRACY          CLEAR     71  63  76 CALM      30.08S
SLAYTON        HVY RAIN  68  60  74 E6        30.10R
$$
MNZ065>067-074>077-082>085-091>093-290400-
   South Central Minnesota

CITY           SKY/WX    TMP DP  RH WIND       PRES   REMARKS
MANKATO        CLEAR     70  63  78 E6        30.08R
NEW ULM        CLEAR     70  61  73 SE5       30.07S
ST JAMES       CLEAR     70  63  78 E5        30.08S
FAIRMONT       CLEAR     67  63  87 E5        30.08R
GLENCOE        CLEAR     70  66  85 CALM      30.08R
FARIBAULT      CLEAR     68  59  73 CALM      30.09S
OWATONNA       CLEAR     66  61  82 E3        30.09R
WASECA         CLEAR     64  59  82 E3        30.10R
ALBERT LEA     CLEAR     70  61  73 E6        30.09R
$$
MNZ078>079-086>088-094>096-290400-
   Southeast Minnesota

CITY           SKY/WX    TMP DP  RH WIND       PRES   REMARKS
ROCHESTER      CLEAR     67  57  70 NE6       30.10R
RED WING       CLEAR     64  57  77 CALM      30.07S
STANTON        CLEAR     64  61  88 CALM      30.07S
DODGE CENTER   CLEAR     63  57  82 E3        30.10S
WINONA         CLEAR     64  59  82 CALM      30.08R
AUSTIN         CLEAR     64  57  77 CALM      30.09R
PRESTON        CLEAR     67  56  68 CALM      30.10R
$$
ABBREVIATIONS USED IN REMARKS
   TC - TEMPERATURES IN CELSIUS
  WCI - WIND CHILL INDEX
   HX - HEAT INDEX
  VSB - VISIBILITY
$$




USA.gov is the U.S. government's official web portal to all federal, state and local government web resources and services.